Home > Weather > Cap-Haïtien > Past weeks

Flag for Haiti Past Weather in Cap-Haïtien, Haiti — Yesterday and Last 2 Weeks

Now
86 °F

Passing clouds.


Feels Like: 99 °F
Forecast: 78 / 87 °F
Wind: 2 mph from North

Location: Port-Au-Prince / Aeroport International

Current Time: Jul 23, 2016 at 8:13:04 PM

Latest Report: Jul 23, 2016 at 7:00 PM


Visibility: 5 mi

Pressure: 29.89 "Hg

Humidity: 79%

Dew Point: 79 °F

Location of Cap-HaïtienLocation

Past Weather in Cap-Haïtien — Graph

°F

Cap-Haïtien Temperature Yesterday

Maximum temperature yesterday: 97 °F (at 1:00 PM)
Minimum temperature yesterday: 81 °F (at 6:00 AM)
Average temperature yesterday: 89 °F

High & Low Weather Summary for the Past Weeks

 TemperatureHumidityPressure
High99 °F (Jul 11, 1:00 PM)100% (Jul 19, 6:00 AM)30.04 "Hg (Jul 19, 6:00 AM)
Low73 °F (Jul 12, 8:00 PM)32% (Jul 9, 2:00 PM)29.89 "Hg (Jul 13, 4:00 PM)
Average88 °F62%29.96 "Hg
* Reported Jul 8 8:00 PM — Jul 23 7:00 PM, Cap-Haïtien, Weather by CustomWeather, © 2016

Note: Actual official high and low records may vary slightly from our data, if they occured in-between our weather recording intervals... More about our weather records

Advertising

Cap-Haïtien Weather History for the Previous 24 Hours

Scroll right to see more
 ConditionsComfort  
Time TempWeatherWind HumidityBarometerVisibility
7:00 PM
Sat, Jul 23
86 °FPassing clouds.2 mph79%29.89 "Hg5 mi
6:00 PM90 °FLight rain. Scattered clouds.6 mph71%29.89 "Hg5 mi
5:00 PM91 °FScattered clouds.14 mph59%29.89 "Hg5 mi
4:00 PM91 °FScattered clouds.9 mph59%29.89 "Hg6 mi
3:00 PM91 °FScattered clouds.9 mph63%29.89 "Hg6 mi
2:00 PM91 °FScattered clouds.10 mph63%29.89 "Hg6 mi
1:00 PM93 °FPassing clouds.10 mph47%29.92 "Hg6 mi
12:00 PM93 °FPassing clouds.8 mph56%29.95 "Hg6 mi
11:00 AM91 °FPassing clouds.5 mph56%29.95 "Hg6 mi
10:00 AM90 °FPassing clouds.9 mph63%29.98 "Hg6 mi
9:00 AM90 °FPassing clouds.12 mph63%29.98 "Hg6 mi
8:00 AM86 °FPassing clouds.13 mph75%29.98 "Hg6 mi
7:00 AM82 °FPassing clouds.8 mph79%29.98 "Hg6 mi
6:00 AM81 °FScattered clouds.7 mph84%29.95 "Hg6 mi
9:00 PM
Fri, Jul 22
86 °FPassing clouds.5 mph70%29.95 "Hg5 mi
8:00 PM88 °FPassing clouds.5 mph70%29.95 "Hg5 mi
Weather by CustomWeather, © 2016

See weather overviewHow to use our weather pages